Showing default

COSMOS 1913, 18792

Orbit data source: Space-Track

COSMOS 1913, 18792 is a payload satellite owned by UNKS (CIS) in LEO that was launched on Fri, 15 Jan 1988 UTC via a TSIKLON-3 launch vehicle from the Plesetsk Missile And Space Complex (PKMTR). Payload-class satellites include a variety of spacecraft equipped with specific instruments for various scientific and technological missions. These include communications satellites like Starlink; space stations such as the ISS; scientific satellites like the Hubble; Earth observation satellites from companies like Planet Labs, Umbra, and HawkEye 360; GPS; miniature CubeSats for education and research; and military/defense satellites.

Loading next visibility...
Identifier
18792, 1988-002E
Orbit
LEO
Country
Flag of CISCIS
Related business
Manufacturer
NPO PM
Mission
Defense Communications
Bus & Motor
STRELA-3, Unknown motor
Mass
225 kg wet, 225 kg dry
Launch date (UTC)
1988-01-15 (38 years ago)
Launch vehicle
TSIKLON-3
Launch site
Plesetsk Missile And Space Complex (PKMTR)
Object type
Payload
Rocket body
Debris
Shape & HBR
Cyl, 0.8 m
Radar Cross Section
1.257 m², Medium (>0.1 m² and < 1m²)

Expand to show TLE details & history
Last TLE update: 10 hours ago

TLE from 10 hours ago
0 COSMOS 1913
1 18792U 88002E   25260.28761885  .00000036  00000-0  13678-3 0  9992
2 18792  82.6020  31.3825 0012942 333.4673  31.5057 12.65737347740238
Epoch: 2025-09-17T06:54Z
TLE epoch observation values (Epoch: 2025-09-17T06:54:10.268Z)
Latitude
4.92816°
Longitude
-67.98771°
Altitude
1,393.005 km
Speed
7.167 km/s
True Right ascension
02h 08m 04s
True Declination
4° 54' 04"
Sunlit
Object was in full shadow at epoch
Visualization orbit readout
Latitude
Unknown
Longitude
Unknown
Altitude
Unknown
Speed
Unknown
Apparent Right ascension
Unknown
Apparent Declination
Unknown
Sunlit
N/A
Visualization observer readout
Local Sidereal Time
09:38:38
Azimuth
Unknown
Elevation
Unknown
Doppler factor
Unknown
Orbital elements
Apogee altitude
1,406.73 km
Perigee altitude
1,386.605 km
Semi-major axis
7,774.805 km
Eccentricity
0.00129
Inclination
82.602°
RAAN
31.3825°
Arg. of periapsis
333.4673°
True anomaly
31.58331°
Mean anomaly
31.5057°
Eccentric anomaly
31.54449°
Mean motion
3.16599 °/min
Orbital period
113.71 mins
BSTAR
0.00013678
Loading maneuver chart data...
Computing Atmospheric mass density...
Loading historical data...
Loading historical data...
Loading historical data...
Loading historical data...
Loading historical data...
Loading historical data...
Loading historical data...

Documentation

Showing up to 5 results
|